• Join FlightAware (Why Join?)
  • Login
  • US Flag GB Flag 
10:05 EDT


 

Airport Tracker/Info


-or-


 

Live Flight TrackerFlight Track Log ✈ N343CW ✈ 03-Feb-2014 ✈ KPDK - KMHT

Flight Track Log - Related Links

Times and Time Zones

All times are in EST time to prevent confusion due to time zone crossing. See the N343CW flight status page for this flight to view local times or setup timezone preferences in your user account.

Time Position Orientation Groundspeed Altitude Reporting Facility
EST Latitude Longitude Course Direction KTS MPH feet Rate Location/Type
09:58 33.8667 -84.2500 90° East 139 160 2,800  Level Atlanta TRACON
09:59 33.8667 -84.2000 90° East 160 184 4,000 1,140 Climbing Atlanta TRACON
10:00 33.8667 -84.1500 90° East 187 215 5,100 420 Climbing Atlanta TRACON
10:01 33.8667 -84.0667 90° East 246 283 5,000 600 Descending Atlanta TRACON
10:03 33.8569 -83.9436 95° East 255 293 6,700 1,020 Climbing Atlanta Center
10:04 33.8547 -83.8736 92° East 233 268 7,700 1,020 Climbing Atlanta Center
10:05 33.8650 -83.7986 91° East 222 255 8,800 1,200 Climbing Atlanta Center
10:06 33.9067 -83.7408 49° Northeast 222 255 10,200 1,140 Climbing Atlanta Center
10:07 33.9461 -83.6781 53° Northeast 228 262 11,100 1,200 Climbing Atlanta Center
10:08 33.9856 -83.6153 53° Northeast 228 262 12,600 1,380 Climbing Atlanta Center
10:09 34.0186 -83.5575 55° Northeast 228 262 13,900 1,200 Climbing Atlanta Center
10:10 34.0561 -83.5022 51° Northeast 223 257 15,100 1,140 Climbing Atlanta Center
10:11 34.0953 -83.4392 53° Northeast 223 257 16,200 960 Climbing Atlanta Center
10:12 34.1369 -83.3786 50° Northeast 228 262 17,100 960 Climbing Atlanta Center
10:13 34.1742 -83.3156 54° Northeast 228 262 18,200 960 Climbing Atlanta Center
10:14 34.2153 -83.2500 53° Northeast 228 262 19,100 900 Climbing Atlanta Center
10:15 34.2567 -83.1892 51° Northeast 228 262 20,100 900 Climbing Atlanta Center
10:16 34.2981 -83.1211 54° Northeast 228 262 20,900 780 Climbing Atlanta Center
10:17 34.3372 -83.0528 55° Northeast 228 262 21,700 720 Climbing Atlanta Center
10:18 34.3844 -82.9867 49° Northeast 240 276 22,400 720 Climbing Atlanta Center
10:19 34.4236 -82.9156 56° Northeast 245 282 23,200 720 Climbing Atlanta Center
10:20 34.4667 -82.8444 54° Northeast 253 291 23,900 660 Climbing Atlanta Center
10:21 34.5100 -82.7758 53° Northeast 253 291 24,600 600 Climbing Atlanta Center
10:22 34.5550 -82.7044 53° Northeast 253 291 25,200 600 Climbing Atlanta Center
10:23 34.5981 -82.6358 53° Northeast 253 291 25,800 540 Climbing Atlanta Center
10:24 34.6411 -82.5694 52° Northeast 254 292 26,300 540 Climbing Atlanta Center
10:25 34.6883 -82.4953 52° Northeast 254 292 26,900 300 Climbing Atlanta Center
10:26 34.7333 -82.4261 52° Northeast 254 292 27,000  Climbing Atlanta Center
10:27 34.7822 -82.3419 55° Northeast 269 310 27,000  Level Atlanta Center
10:28 34.8311 -82.2597 54° Northeast 283 326 27,000  Level Atlanta Center
10:29 34.8819 -82.1753 54° Northeast 296 341 27,000  Level Atlanta Center
10:30 34.9350 -82.0931 52° Northeast 302 348 27,000  Level Atlanta Center
10:31 34.9858 -82.0031 55° Northeast 302 348 27,000  Level Atlanta Center
10:32 35.0386 -81.9231 51° Northeast 302 348 27,000  Level Atlanta Center
10:33 35.1003 -81.8681 36° Northeast 297 342 27,000  Level Atlanta Center
10:34 35.1658 -81.8081 37° Northeast 297 342 27,000  Level Atlanta Center
10:35 35.2336 -81.7453 37° Northeast 297 342 27,000  Level Atlanta Center
10:36 35.3014 -81.6847 36° Northeast 297 342 27,000  Level Atlanta Center
10:37 35.3689 -81.6217 37° Northeast 297 342 27,000  Level Atlanta Center
10:38 35.4325 -81.5561 40° Northeast 297 342 27,000  Level Atlanta Center
10:39 35.5022 -81.4981 34° Northeast 297 342 27,000  Level Atlanta Center
10:40 35.5697 -81.4372 36° Northeast 297 342 27,000  Level Atlanta Center
10:41 35.6369 -81.3686 40° Northeast 297 342 27,000  Level Atlanta Center
10:42 35.7067 -81.3050 37° Northeast 297 342 27,000  Level Atlanta Center
10:43 35.7697 -81.2414 39° Northeast 297 342 27,000  Level Atlanta Center
10:44 35.8433 -81.1697 38° Northeast 297 342 27,000  Level Atlanta Center
10:45 35.9128 -81.1108 34° Northeast 297 342 27,000  Level Atlanta Center
10:46 35.9761 -81.0519 37° Northeast 304 350 27,000  Level Atlanta Center
10:47 36.0453 -80.9878 37° Northeast 311 358 27,000  Level Atlanta Center
10:48 36.1128 -80.9261 36° Northeast 304 350 27,000  Level Atlanta Center
10:49 36.1736 -80.8594 41° Northeast 304 350 27,000  Level Atlanta Center
10:50 36.2428 -80.7950 37° Northeast 299 344 27,000  Level Atlanta Center
10:51 36.3097 -80.7281 39° Northeast 305 351 27,000  Level Atlanta Center
10:53 36.4714 -80.5822 36° Northeast 306 352 27,000  Level Washington Center
10:54 36.5386 -80.5194 37° Northeast 306 352 27,000  Level Washington Center
10:55 36.6083 -80.4514 38° Northeast 306 352 27,000 240 Level Washington Center
10:56 36.6733 -80.3881 38° Northeast 306 352 27,500 480 Climbing Washington Center
10:57 36.7297 -80.3319 39° Northeast 293 337 28,000 240 Climbing Washington Center
10:58 36.7906 -80.2733 38° Northeast 286 329 28,000  Level Washington Center
10:59 36.8556 -80.2100 38° Northeast 286 329 28,000  Level Washington Center
11:00 36.9250 -80.1439 37° Northeast 297 342 28,000  Level Washington Center
11:01 36.9986 -80.0728 38° Northeast 304 350 28,000  Level Washington Center
11:02 37.0678 -80.0067 37° Northeast 304 350 28,000  Level Washington Center
11:03 37.1350 -79.9400 38° Northeast 304 350 28,000  Level Washington Center
11:04 37.2042 -79.8736 37° Northeast 304 350 28,000  Level Washington Center
11:05 37.2625 -79.8142 39° Northeast 304 350 28,000  Level Washington Center
11:06 37.3317 -79.7475 37° Northeast 304 350 28,000  Level Washington Center
11:07 37.4006 -79.6808 38° Northeast 304 350 28,000 -120 Level Washington Center
11:08 37.4697 -79.6086 40° Northeast 314 361 27,800 -300 Descending Washington Center
11:09 37.5475 -79.5289 39° Northeast 320 368 27,500 -420 Descending Washington Center
11:10 37.6122 -79.4639 38° Northeast 320 368 27,000 -300 Descending Washington Center
11:11 37.6919 -79.3842 38° Northeast 320 368 27,000  Level Washington Center
11:12 37.7586 -79.3244 35° Northeast 326 375 27,000  Level Washington Center
11:13 37.8383 -79.2442 38° Northeast 326 375 27,000  Level Washington Center
11:14 37.9069 -79.1764 38° Northeast 326 375 27,000  Level Washington Center
11:15 37.9781 -79.1033 39° Northeast 326 375 27,000  Level Washington Center
11:16 38.0489 -79.0328 38° Northeast 326 375 27,000  Level Washington Center
11:17 38.1111 -78.9672 40° Northeast 326 375 27,000  Level Washington Center
11:18 38.1819 -78.8964 38° Northeast 326 375 27,000  Level Washington Center
11:19 38.2547 -78.8256 37° Northeast 326 375 27,000  Level Washington Center
11:20 38.3300 -78.7414 41° Northeast 326 375 27,000  Level Washington Center
11:21 38.4008 -78.6703 38° Northeast 326 375 27,000  Level Washington Center
11:22 38.4714 -78.5964 39° Northeast 326 375 27,000  Level Washington Center
11:23 38.5442 -78.5197 39° Northeast 332 382 27,000  Level Washington Center
11:24 38.6189 -78.4428 39° Northeast 332 382 27,000  Level Washington Center
11:25 38.6939 -78.3633 40° Northeast 332 382 27,000  Level Washington Center
11:26 38.7686 -78.2889 38° Northeast 332 382 27,000  Level Washington Center
11:27 38.8347 -78.2194 39° Northeast 332 382 27,000  Level Washington Center
11:28 38.9094 -78.1419 39° Northeast 332 382 27,000  Level Washington Center
11:29 38.9839 -78.0644 39° Northeast 332 382 27,000  Level Washington Center
11:31 39.1319 -77.9103 39° Northeast 353 406 27,000  Level New York Center
11:32 39.2008 -77.8394 39° Northeast 348 400 27,000  Level New York Center
11:33 39.2767 -77.7586 40° Northeast 348 400 27,000  Level New York Center
11:34 39.3525 -77.6772 40° Northeast 348 400 27,000  Level New York Center
11:35 39.4281 -77.5958 40° Northeast 348 400 27,000  Level New York Center
11:36 39.5036 -77.5144 40° Northeast 348 400 27,000  Level New York Center
11:37 39.5792 -77.4353 39° Northeast 348 400 27,000  Level New York Center
11:38 39.6525 -77.3533 41° Northeast 348 400 27,000  Level New York Center
11:39 39.7297 -77.2742 38° Northeast 348 400 27,000  Level New York Center
11:40 39.8033 -77.1889 42° Northeast 348 400 27,000  Level New York Center
11:41 39.8806 -77.1122 37° Northeast 348 400 27,000  Level New York Center
11:42 39.9558 -77.0269 41° Northeast 348 400 27,000  Level New York Center
11:43 40.0292 -76.9439 41° Northeast 343 395 27,000  Level New York Center
11:44 40.1019 -76.8661 39° Northeast 343 395 27,000  Level New York Center
11:45 40.1836 -76.7756 40° Northeast 343 395 27,000  Level New York Center
11:46 40.2544 -76.6947 41° Northeast 343 395 27,000  Level New York Center
11:47 40.3292 -76.6194 38° Northeast 343 395 27,000  Level New York Center
11:48 40.4000 -76.5381 41° Northeast 343 395 27,000  Level New York Center
11:49 40.4703 -76.4594 40° Northeast 343 395 27,000  Level New York Center
11:50 40.5411 -76.3778 41° Northeast 338 389 27,000  Level New York Center
11:51 40.6114 -76.3014 40° Northeast 338 389 27,000  Level New York Center
11:52 40.6839 -76.2197 40° Northeast 333 383 27,000  Level New York Center
11:53 40.7561 -76.1406 40° Northeast 328 377 27,000  Level New York Center
11:54 40.8244 -76.0608 41° Northeast 328 377 27,000  Level New York Center
11:55 40.8983 -75.9897 36° Northeast 328 377 27,000  Level New York Center
11:56 40.9797 -75.9383 25° Northeast 323 372 27,000  Level New York Center
11:57 41.0633 -75.8897 24° Northeast 323 372 27,000  Level New York Center
11:58 41.1467 -75.8408 24° Northeast 323 372 27,000  Level New York Center
11:59 41.2214 -75.7967 24° Northeast 323 372 27,000  Level New York Center
12:00 41.3153 -75.7431 23° Northeast 323 372 27,000  Level New York Center
12:01 41.3964 -75.6964 23° Northeast 318 366 27,000  Level New York Center
12:02 41.4539 -75.6147 47° Northeast 324 373 27,000  Level New York Center
12:03 41.5178 -75.5253 46° Northeast 324 373 27,000  Level New York Center
12:04 41.5817 -75.4411 45° Northeast 329 379 27,000  Level New York Center
12:05 41.6456 -75.3539 46° Northeast 329 379 27,000  Level New York Center
12:06 41.7344 -75.2303 46° Northeast 330 380 27,000  Level Boston Center
12:07 41.8092 -75.1244 47° Northeast 329 379 27,000  Level Boston Center
12:08 41.8725 -75.0394 45° Northeast 324 373 27,000  Level Boston Center
12:09 41.9358 -74.9511 46° Northeast 328 377 27,000  Level Boston Center
12:10 41.9869 -74.8531 55° Northeast 324 373 27,000  Level Boston Center
12:11 42.0153 -74.7411 71° East 318 366 27,000  Level Boston Center
12:12 42.0569 -74.6242 64° Northeast 322 371 27,000  Level Boston Center
12:13 42.0922 -74.5114 67° East 326 375 27,000  Level Boston Center
12:14 42.1236 -74.4183 66° East 328 377 27,000  Level Boston Center
12:15 42.1689 -74.2828 66° East 330 380 27,000  Level Boston Center
12:16 42.2056 -74.1683 67° East 331 381 27,000  Level Boston Center
12:17 42.2422 -74.0542 67° East 333 383 27,000  Level Boston Center
12:18 42.2794 -73.9414 66° East 332 382 27,000  Level Boston Center
12:19 42.3156 -73.8272 67° East 330 380 27,000  Level Boston Center
12:20 42.3525 -73.7142 66° East 330 380 27,000  Level Boston Center
12:21 42.3886 -73.6003 67° East 329 379 27,000  Level Boston Center
12:22 42.4250 -73.4858 67° East 330 380 27,000 -60 Level Boston Center
12:23 42.4617 -73.3703 67° East 333 383 26,900 -840 Descending Boston Center
12:24 42.4997 -73.2486 67° East 346 398 25,400 -1,500 Descending Boston Center
12:25 42.5386 -73.1250 67° East 352 405 23,900 -1,560 Descending Boston Center
12:26 42.5828 -72.9825 67° East 353 406 22,200 -1,440 Descending Boston Center
12:27 42.6194 -72.8647 67° East 341 392 21,000 -1,380 Descending Boston Center
12:28 42.6536 -72.7514 68° East 329 379 19,400 -1,500 Descending Boston Center
12:29 42.6867 -72.6469 67° East 334 384 18,000 -1,440 Descending Boston Center
12:30 42.7208 -72.5347 67° East 325 374 16,600 -1,560 Descending Boston Center
12:31 42.7564 -72.4206 67° East 326 375 14,900 -1,740 Descending Boston Center
12:33 42.7903 -72.3072 68° East 324 373 13,100 -1,980 Descending Boston Center
12:34 42.8139 -72.1781 76° East 301 346 10,900 -2,100 Descending Boston Center
12:35 42.8319 -72.0708 77° East 292 336 8,900 -1,980 Descending Boston Center
12:36 42.8481 -71.9767 77° East 236 272 6,900 -2,040 Descending Boston Center
12:37 42.8756 -71.9061 62° Northeast 209 241 4,900 -1,500 Descending Boston Center
12:38 42.8728 -71.8419 93° East 181 208 3,900 -480 Descending Boston Center
12:39 42.8572 -71.7936 114° Southeast 143 165 4,000  Climbing Boston Center
12:40 42.8400 -71.7392 113° Southeast 155 178 3,900 -600 Descending Boston Center
12:41 42.8250 -71.6897 112° Southeast 136 157 2,900 -840 Descending Boston Center
12:42 42.8125 -71.6444 111° Southeast 130 150 2,200 -600 Descending Boston Center
12:43 42.8114 -71.5997 92° East 125 144 1,800 -240 Descending Boston Center
12:44 42.8331 -71.5675 47° Northeast 120 138 1,800  Level Boston Center
12:45 42.8583 -71.5358 43° Northeast 122 140 1,900 -180 Climbing Boston Center
12:46 42.8817 -71.5069 42° Northeast 99 114 1,500 -420 Descending Boston Center
12:47 42.8997 -71.4844 42° Northeast 89 102 1,100 -480 Descending Boston Center
12:48 42.9186 -71.4606 43° Northeast 92 106 600 -360 Descending Boston Center
12:49 42.9339 -71.4422 41° Northeast 91 105 400 -240 Descending Boston Center